[[{"header":{"parameterUnit":"m.s-1","parameterCategory":2,"la1":30.2991,"la2":30.254,"lo1":-89.0895,"lo2":-89.0444,"dy":0.0017,"dx":0.0017,"nx":28,"ny":28,"refTime":"2025-01-14T03:00:00:Z","depth":"0","parameterNumber":2,"parameterNumberName":"U-component_of_CURRENTS"},"data":[0,0,0,0,0,0,0,0,0,0,0,0,0,0,0,0,0,0,0,0,0,0,0,0,0,0,0,0,0,0,0,0,0,0,0,0,0,0,0,0,0,0,0,0,0,0,0,0,0,0,0,0,0,0,0,0,0,0,-0.2599,-0.2599,0,-0.2602,-0.2602,-0.2602,-0.2559,-0.2558,-0.2557,-0.2555,-0.2529,-0.2529,-0.253,0,0,0,0,0,0,0,0,0,0,0,0,0,-0.2541,-0.2542,-0.2599,-0.2599,-0.2599,-0.2602,-0.2602,-0.2602,-0.2559,-0.2558,-0.2556,-0.2555,-0.2529,-0.2529,-0.253,0,0,0,0,0,0,0,0,0,0,0,0,0,-0.2556,-0.2543,-0.2599,-0.2579,-0.2577,-0.2602,-0.2602,-0.2602,-0.2559,-0.2557,-0.2556,-0.2554,-0.2529,-0.2529,-0.253,-0.2564,0,0,-0.2531,-0.2531,0,0,0,0,0,0,0,0,-0.2555,-0.2558,-0.2582,-0.258,-0.2578,-0.258,-0.2572,-0.2588,-0.256,-0.2565,-0.2555,-0.2554,-0.2545,-0.2544,-0.2547,-0.2563,-0.2562,-0.2531,-0.2531,-0.2531,-0.2532,0,0,0,0,0,0,0,-0.2554,-0.2558,-0.2599,-0.2582,-0.258,-0.2565,-0.2566,-0.2575,-0.2562,-0.2564,-0.2561,-0.2564,-0.2544,-0.2547,-0.2546,-0.2562,-0.2531,-0.2531,-0.2532,-0.2532,-0.2589,-0.259,0,0,0,0,0,0,-0.256,-0.2557,-0.2599,-0.2599,-0.2564,-0.2568,-0.2568,-0.258,-0.2563,-0.2559,-0.2566,-0.2562,-0.2547,-0.2545,-0.2545,-0.2569,-0.2531,-0.2532,-0.2532,-0.2587,-0.2589,-0.259,0,0,0,0,0,0,-0.2559,-0.2564,-0.2599,-0.2578,-0.2582,-0.2571,-0.2584,-0.2581,-0.2577,-0.2565,-0.256,-0.2564,-0.2545,-0.2544,-0.2552,-0.2568,-0.2532,-0.2532,-0.2586,-0.2588,-0.259,-0.2627,0,0,0,0,0,0,-0.2557,-0.2564,-0.2572,-0.2579,-0.2583,-0.2617,-0.2586,-0.2582,-0.2582,-0.2578,-0.2562,-0.2558,-0.2544,-0.2552,-0.2553,-0.2568,-0.2533,-0.2584,-0.2587,-0.2589,-0.2624,-0.263,-0.2635,0,0,0,0,0,-0.2555,-0.2579,-0.2572,-0.2577,-0.2596,-0.2618,-0.2619,-0.2604,-0.2584,-0.2592,-0.2578,-0.2558,-0.2567,-0.2554,-0.2554,-0.2569,-0.2583,-0.2586,-0.2589,-0.2622,-0.2629,-0.2634,0,0,0,0,0,0,-0.2566,-0.2578,-0.257,-0.2598,-0.2607,-0.2611,-0.2618,-0.2609,-0.2606,-0.2596,-0.2576,-0.2573,-0.2587,-0.2579,-0.2564,-0.2594,-0.2572,-0.2575,-0.2597,-0.2603,-0.2609,-0.2609,-0.2533,0,0,0,0,0,-0.2573,-0.2584,-0.2598,-0.2617,-0.2624,-0.262,-0.2625,-0.2619,-0.2619,-0.2615,-0.2604,-0.2597,-0.2604,-0.2602,-0.2607,-0.2625,-0.2603,-0.2636,-0.2641,-0.2646,-0.2648,-0.2637,-0.2641,-0.26,-0.2599,-0.2599,0,0,-0.2581,-0.2589,-0.2595,-0.2618,-0.2621,-0.264,-0.2619,-0.2633,-0.2644,-0.2615,-0.2623,-0.2619,-0.2615,-0.2632,-0.2638,-0.2623,-0.2644,-0.2649,-0.2653,-0.2653,-0.264,-0.2644,-0.2647,-0.2601,-0.2601,-0.2601,0,0,-0.2601,-0.2612,-0.2624,-0.2638,-0.265,-0.2655,-0.266,-0.2668,-0.2665,-0.2681,-0.2662,-0.2666,-0.2673,-0.2672,-0.2673,-0.2715,-0.2676,-0.2717,-0.2738,-0.2728,-0.273,-0.2733,-0.2698,-0.2697,-0.2715,-0.2715,-0.2715,0,-0.2605,-0.2625,-0.2633,-0.2652,-0.2662,-0.2663,-0.2681,-0.2693,-0.27,-0.2702,-0.2687,-0.2697,-0.2694,-0.2712,-0.2725,-0.2726,-0.2703,-0.2711,-0.2733,-0.2735,-0.2736,-0.27,-0.2698,-0.2717,-0.2716,-0.2716,-0.2716,0,-0.263,-0.2649,-0.2662,-0.2681,-0.2699,-0.2717,-0.2736,-0.2749,-0.2744,-0.2747,-0.2761,-0.2756,-0.2755,-0.2762,-0.2756,-0.2773,-0.2746,-0.2742,-0.2712,-0.2742,-0.2702,-0.27,-0.272,-0.2719,-0.2718,-0.2718,0,0,-0.2616,-0.2667,-0.2666,-0.2677,-0.2711,-0.2725,-0.2761,-0.2783,-0.2794,-0.2802,-0.2808,-0.2826,-0.2812,-0.2813,-0.2804,-0.2799,-0.2791,-0.2777,-0.2776,-0.2734,-0.2746,-0.2665,-0.2654,-0.2786,-0.2787,-0.2787,-0.2708,0,-0.262,-0.2657,-0.2684,-0.2715,-0.2731,-0.2757,-0.2788,-0.2812,-0.2823,-0.2835,-0.2836,-0.2841,-0.2835,-0.2829,-0.2828,-0.2807,-0.2788,-0.2811,-0.273,-0.2727,-0.2645,-0.265,-0.2537,-0.2452,-0.2705,-0.2704,-0.2704,0,-0.2614,-0.2641,-0.2673,-0.272,-0.2729,-0.2752,-0.2784,-0.2815,-0.2848,-0.2856,-0.2865,-0.2862,-0.2868,-0.2851,-0.2821,-0.2834,-0.2793,-0.2769,-0.2765,-0.2675,-0.2642,-0.2466,-0.2437,-0.2411,-0.27,-0.27,-0.27,0,-0.2565,-0.2623,-0.2644,-0.2661,-0.2722,-0.2737,-0.2766,-0.2808,-0.2827,-0.286,-0.2865,-0.2876,-0.2864,-0.284,-0.2798,-0.2807,-0.2747,-0.2749,-0.2632,-0.2625,-0.2505,-0.2487,-0.2432,-0.2713,-0.2713,-0.2713,-0.2714,0,-0.2541,-0.2552,-0.2621,-0.2629,-0.2648,-0.2706,-0.2725,-0.2761,-0.2807,-0.2821,-0.2861,-0.2861,-0.286,-0.283,-0.2796,-0.2698,-0.2739,-0.2628,-0.2601,-0.2513,-0.2498,-0.2451,-0.2475,-0.271,-0.2711,-0.2712,-0.2712,0,-0.2465,-0.2519,-0.2539,-0.2605,-0.2621,-0.2628,-0.2688,-0.2703,-0.2764,-0.2782,-0.279,-0.2835,-0.2798,-0.2775,-0.2724,-0.2671,-0.2548,-0.2555,-0.244,-0.2401,-0.2263,-0.2294,-0.2214,-0.215,-0.2409,-0.2407,-0.2405,0,-0.2424,-0.2429,-0.2492,-0.2497,-0.2519,-0.255,-0.2566,-0.2653,-0.2677,-0.2756,-0.2752,-0.2749,-0.2711,-0.2612,-0.2529,-0.2427,-0.2437,-0.2266,-0.2267,-0.2231,-0.2247,-0.2278,-0.2233,-0.2117,-0.2113,-0.2109,-0.2107,0,-0.233,-0.2355,-0.2371,-0.2389,-0.2405,-0.2429,-0.2469,-0.2485,-0.2585,-0.2607,-0.2622,-0.2603,-0.2534,-0.2389,-0.2276,-0.2208,-0.2206,-0.219,-0.2186,-0.2038,-0.2035,-0.1967,-0.2191,-0.2076,-0.2079,-0.2081,-0.2083,-0.2084,-0.2236,-0.2224,-0.2248,-0.2248,-0.227,-0.2273,-0.2247,-0.231,-0.2321,-0.2326,-0.2421,-0.2358,-0.2287,-0.2108,-0.2035,-0.188,-0.1965,-0.1822,-0.1866,-0.1905,-0.1833,-0.1978,-0.1819,-0.182,-0.1821,-0.1823,-0.1824,0,-0.2105,-0.2106,-0.2103,-0.2102,-0.2066,-0.2127,-0.2144,-0.2095,-0.2055,-0.2112,-0.2095,-0.2043,-0.1886,-0.1836,-0.1692,-0.1593,-0.156,-0.1561,-0.1588,-0.156,-0.1694,-0.167,-0.1431,-0.1431,-0.1432,-0.1432,-0.1432,-0.1432,-0.2036,-0.1984,-0.1983,-0.1883,-0.1877,-0.1782,-0.1754,-0.1711,-0.1715,-0.1659,-0.1668,-0.1725,-0.1705,-0.1736,-0.1569,-0.1474,-0.1444,-0.1388,-0.1433,-0.1549,-0.1577,-0.1605,-0.1587,-0.1335,-0.1335,-0.1227,-0.1226,-0.1226]},{"header":{"parameterUnit":"m.s-1","parameterCategory":2,"la1":30.2991,"la2":30.254,"lo1":-89.0895,"lo2":-89.0444,"dy":0.0017,"dx":0.0017,"nx":28,"ny":28,"refTime":"2025-01-14T03:00:00:Z","depth":"0","parameterNumber":3,"parameterNumberName":"V-component_of_CURRENTS"},"data":[0,0,0,0,0,0,0,0,0,0,0,0,0,0,0,0,0,0,0,0,0,0,0,0,0,0,0,0,0,0,0,0,0,0,0,0,0,0,0,0,0,0,0,0,0,0,0,0,0,0,0,0,0,0,0,0,0,0,-0.0581,-0.058,0,-0.0467,-0.0466,-0.0465,-0.0392,-0.0391,-0.0391,-0.0391,-0.0243,-0.024,-0.0236,0,0,0,0,0,0,0,0,0,0,0,0,0,-0.0658,-0.0657,-0.0581,-0.058,-0.0579,-0.0468,-0.0466,-0.0464,-0.0392,-0.0391,-0.0391,-0.0391,-0.0245,-0.024,-0.0236,0,0,0,0,0,0,0,0,0,0,0,0,0,-0.0591,-0.0657,-0.0582,-0.0531,-0.0525,-0.0468,-0.0466,-0.0464,-0.0392,-0.0391,-0.0391,-0.0391,-0.0246,-0.0241,-0.0235,-0.0209,0,0,-0.0218,-0.0216,0,0,0,0,0,0,0,0,-0.0595,-0.0588,-0.0539,-0.0534,-0.0528,-0.0445,-0.0439,-0.0378,-0.0392,-0.044,-0.0391,-0.039,-0.0309,-0.0299,-0.0276,-0.0202,-0.0196,-0.0218,-0.0215,-0.0212,-0.0211,0,0,0,0,0,0,0,-0.06,-0.0592,-0.0534,-0.0538,-0.0531,-0.0487,-0.0478,-0.0427,-0.0376,-0.0436,-0.0431,-0.0422,-0.0306,-0.0281,-0.0272,-0.0194,-0.0218,-0.0213,-0.021,-0.0208,-0.0086,-0.0086,0,0,0,0,0,0,-0.0622,-0.0597,-0.0538,-0.0531,-0.0563,-0.0487,-0.0476,-0.047,-0.0377,-0.0364,-0.0422,-0.0419,-0.0291,-0.0278,-0.0266,-0.0231,-0.0212,-0.0207,-0.0204,-0.0086,-0.0086,-0.0086,0,0,0,0,0,0,-0.0624,-0.0618,-0.0543,-0.0563,-0.055,-0.0486,-0.048,-0.0468,-0.0444,-0.0367,-0.0353,-0.0411,-0.029,-0.0274,-0.0224,-0.0225,-0.0205,-0.02,-0.0086,-0.0086,-0.0086,-0.016,0,0,0,0,0,0,-0.0627,-0.062,-0.0623,-0.0565,-0.055,-0.0516,-0.0481,-0.0467,-0.044,-0.0435,-0.0353,-0.0339,-0.0289,-0.0232,-0.0218,-0.0217,-0.0195,-0.0086,-0.0086,-0.0086,-0.0158,-0.0163,-0.0167,0,0,0,0,0,-0.063,-0.0636,-0.0624,-0.0617,-0.0557,-0.0516,-0.0504,-0.0456,-0.044,-0.0432,-0.0378,-0.0341,-0.0223,-0.0228,-0.0211,-0.0208,-0.0086,-0.0086,-0.0086,-0.0155,-0.0162,-0.0167,0,0,0,0,0,0,-0.0664,-0.0628,-0.0613,-0.0606,-0.0569,-0.0505,-0.0492,-0.0463,-0.0414,-0.0409,-0.0338,-0.032,-0.0278,-0.0234,-0.0241,-0.0175,-0.015,-0.0147,-0.0208,-0.0213,-0.0218,-0.0233,-0.0191,0,0,0,0,0,-0.0678,-0.0676,-0.0629,-0.0624,-0.061,-0.0555,-0.0532,-0.0502,-0.0452,-0.0429,-0.0374,-0.0316,-0.0265,-0.0234,-0.0183,-0.0145,-0.01,-0.0133,-0.0138,-0.0142,-0.0143,-0.0085,-0.0085,-0.0087,-0.0087,-0.0087,0,0,-0.0688,-0.0669,-0.0667,-0.0632,-0.0599,-0.0583,-0.054,-0.0512,-0.0496,-0.0421,-0.0383,-0.033,-0.026,-0.0217,-0.0194,-0.018,-0.0118,-0.0143,-0.0147,-0.0145,-0.0085,-0.0085,-0.0085,-0.0087,-0.0087,-0.0087,0,0,-0.0712,-0.0694,-0.0702,-0.0679,-0.0642,-0.0607,-0.0605,-0.0548,-0.0519,-0.0478,-0.0422,-0.0373,-0.0295,-0.0243,-0.0208,-0.0208,-0.0148,-0.0194,-0.0224,-0.0169,-0.0168,-0.0167,-0.0113,-0.0106,-0.0194,-0.0194,-0.0194,0,-0.0726,-0.0731,-0.0696,-0.0696,-0.0682,-0.0625,-0.0625,-0.0586,-0.052,-0.0497,-0.0478,-0.0362,-0.0307,-0.0247,-0.0248,-0.0218,-0.0178,-0.0211,-0.0176,-0.0174,-0.0171,-0.0116,-0.0108,-0.0198,-0.0197,-0.0197,-0.0197,0,-0.0754,-0.0758,-0.0759,-0.0745,-0.0723,-0.0715,-0.0664,-0.0638,-0.06,-0.0555,-0.0494,-0.0415,-0.0346,-0.0323,-0.0283,-0.0239,-0.0213,-0.0193,-0.0165,-0.0176,-0.0116,-0.0107,-0.0203,-0.0202,-0.0201,-0.02,0,0,-0.0784,-0.0782,-0.0782,-0.0791,-0.0752,-0.0738,-0.0714,-0.0671,-0.0653,-0.0586,-0.0551,-0.0465,-0.0419,-0.0376,-0.0317,-0.0267,-0.0218,-0.023,-0.0225,-0.0184,-0.0094,-0.0047,-0.0031,-0.0193,-0.0192,-0.0191,-0.0061,0,-0.0816,-0.0846,-0.0824,-0.084,-0.085,-0.0798,-0.0781,-0.0734,-0.0681,-0.0631,-0.0544,-0.0488,-0.0439,-0.0407,-0.035,-0.0248,-0.0195,-0.0255,-0.0083,-0.0078,-0.0041,-0.0019,0.0018,0.0139,-0.0051,-0.0049,-0.0048,0,-0.0849,-0.0868,-0.09,-0.0902,-0.0899,-0.0894,-0.0857,-0.0831,-0.0747,-0.0704,-0.0629,-0.0555,-0.0463,-0.0427,-0.026,-0.0301,-0.0208,-0.0131,-0.0123,-0.0046,-0.0012,0.0122,0.0165,0.0309,-0.0032,-0.0033,-0.0034,0,-0.0901,-0.0917,-0.095,-0.0951,-0.0939,-0.0938,-0.0922,-0.0857,-0.0834,-0.0747,-0.0714,-0.0594,-0.0528,-0.04,-0.0235,-0.0248,-0.0049,-0.0044,0.0089,0.0094,0.0177,0.0187,0.0377,0.0069,0.0069,0.0069,0.0068,0,-0.095,-0.0973,-0.0982,-0.1001,-0.1032,-0.0997,-0.1001,-0.0963,-0.0901,-0.0871,-0.0757,-0.0696,-0.0519,-0.038,-0.0242,-0.0035,-0.0047,0.0095,0.0135,0.0153,0.0158,0.033,0.0381,0.0074,0.0072,0.0072,0.0071,0,-0.1003,-0.1008,-0.1049,-0.1059,-0.1062,-0.1084,-0.1069,-0.1064,-0.0995,-0.0949,-0.0924,-0.0765,-0.0577,-0.0384,-0.016,-0.0038,0.0248,0.022,0.0229,0.0268,0.0509,0.0553,0.0786,0.0871,0.0383,0.0385,0.0386,0,-0.1035,-0.1065,-0.1103,-0.1133,-0.1142,-0.1162,-0.1173,-0.1122,-0.1107,-0.0983,-0.0962,-0.0774,-0.0619,-0.0264,-0.0015,0.0252,0.0357,0.043,0.0412,0.0543,0.0622,0.0652,0.0708,0.0496,0.0499,0.0501,0.0502,0,-0.1094,-0.1107,-0.1142,-0.121,-0.124,-0.1267,-0.1272,-0.1277,-0.1199,-0.1128,-0.0996,-0.0859,-0.0504,-0.0176,0.0168,0.0329,0.0543,0.0478,0.0624,0.0739,0.0778,0.0871,0.0384,0.052,0.0519,0.0517,0.0516,0.0516,-0.1128,-0.1173,-0.1222,-0.128,-0.1319,-0.1356,-0.1369,-0.1345,-0.13,-0.1167,-0.1031,-0.0776,-0.0318,0.0183,0.0366,0.0754,0.0712,0.0863,0.091,0.0932,0.1007,0.0556,0.0727,0.0726,0.0726,0.0725,0.0725,0,-0.117,-0.122,-0.1287,-0.1353,-0.1403,-0.1402,-0.1417,-0.139,-0.1325,-0.1157,-0.0984,-0.0455,0.0002,0.0422,0.0958,0.1168,0.121,0.1273,0.133,0.1368,0.099,0.0988,0.1213,0.1212,0.1212,0.1212,0.1212,0.1212,-0.1193,-0.1267,-0.1304,-0.1399,-0.1442,-0.1471,-0.1472,-0.1401,-0.1274,-0.0966,-0.0655,-0.0409,0.019,0.1027,0.1513,0.1563,0.1731,0.173,0.1812,0.155,0.1515,0.1481,0.1494,0.182,0.1821,0.2178,0.2182,0.2185]}],[{"header":{"parameterUnit":"m.s-1","parameterCategory":2,"la1":30.2991,"la2":30.254,"lo1":-89.0895,"lo2":-89.0444,"dy":0.0017,"dx":0.0017,"nx":28,"ny":28,"refTime":"2025-01-14T03:00:00:Z","depth":"2","parameterNumber":2,"parameterNumberName":"U-component_of_CURRENTS"},"data":[0,0,0,0,0,0,0,0,0,0,0,0,0,0,0,0,0,0,0,0,0,0,0,0,0,0,0,0,0,0,0,0,0,0,0,0,0,0,0,0,0,0,0,0,0,0,0,0,0,0,0,0,0,0,0,0,0,0,-0.2319,-0.232,0,-0.2337,-0.2337,-0.2337,-0.2311,-0.231,-0.231,-0.2309,-0.2301,-0.2302,-0.2302,0,0,0,0,0,0,0,0,0,0,0,0,0,-0.2257,-0.2259,-0.2319,-0.232,-0.232,-0.2337,-0.2337,-0.2338,-0.2311,-0.231,-0.2309,-0.2309,-0.2301,-0.2301,-0.2302,0,0,0,0,0,0,0,0,0,0,0,0,0,-0.2279,-0.2259,-0.2319,-0.231,-0.231,-0.2337,-0.2337,-0.2338,-0.2312,-0.231,-0.2309,-0.2308,-0.2301,-0.2301,-0.2302,-0.2331,0,0,-0.2305,-0.2305,0,0,0,0,0,0,0,0,-0.2278,-0.2281,-0.2311,-0.2311,-0.231,-0.2322,-0.2313,-0.2334,-0.2312,-0.2309,-0.2309,-0.2308,-0.2308,-0.2308,-0.2312,-0.233,-0.233,-0.2305,-0.2305,-0.2305,-0.2306,0,0,0,0,0,0,0,-0.2277,-0.2281,-0.2325,-0.2312,-0.2311,-0.2304,-0.2305,-0.2317,-0.2313,-0.2309,-0.2308,-0.2313,-0.2307,-0.2311,-0.2312,-0.233,-0.2305,-0.2305,-0.2306,-0.2306,-0.2372,-0.2373,0,0,0,0,0,0,-0.2279,-0.2279,-0.2324,-0.2326,-0.2293,-0.2306,-0.2308,-0.2318,-0.2314,-0.2312,-0.2314,-0.2311,-0.2311,-0.2311,-0.2311,-0.2345,-0.2305,-0.2306,-0.2307,-0.237,-0.2372,-0.2373,0,0,0,0,0,0,-0.2278,-0.2284,-0.2324,-0.2303,-0.2308,-0.2308,-0.232,-0.2319,-0.2322,-0.2317,-0.2315,-0.2317,-0.231,-0.231,-0.2325,-0.2344,-0.2307,-0.2307,-0.2369,-0.2371,-0.2373,-0.2411,0,0,0,0,0,0,-0.2276,-0.2283,-0.229,-0.2304,-0.231,-0.2346,-0.2322,-0.2321,-0.2328,-0.2325,-0.232,-0.2318,-0.2309,-0.2324,-0.2326,-0.2344,-0.2308,-0.2367,-0.237,-0.2372,-0.2409,-0.2414,-0.2419,0,0,0,0,0,-0.2274,-0.2294,-0.2291,-0.2296,-0.232,-0.2347,-0.2349,-0.2344,-0.2329,-0.2339,-0.2334,-0.2318,-0.234,-0.2326,-0.2328,-0.2347,-0.2366,-0.2369,-0.2372,-0.2406,-0.2413,-0.2419,0,0,0,0,0,0,-0.2278,-0.2294,-0.229,-0.2315,-0.2331,-0.2343,-0.2352,-0.2349,-0.2354,-0.2348,-0.2336,-0.2335,-0.2356,-0.235,-0.2335,-0.2374,-0.2351,-0.2354,-0.2376,-0.2383,-0.2388,-0.2387,-0.2309,0,0,0,0,0,-0.2282,-0.2293,-0.2313,-0.2331,-0.234,-0.2346,-0.2355,-0.2355,-0.2362,-0.2362,-0.236,-0.2361,-0.2372,-0.2375,-0.2384,-0.2406,-0.2387,-0.242,-0.2426,-0.243,-0.2432,-0.2424,-0.2428,-0.2383,-0.2383,-0.2383,0,0,-0.2288,-0.2298,-0.2304,-0.2331,-0.2339,-0.2363,-0.2348,-0.2368,-0.2385,-0.2363,-0.2382,-0.2383,-0.2384,-0.2408,-0.2417,-0.2402,-0.2432,-0.2434,-0.2438,-0.2436,-0.2427,-0.2431,-0.2435,-0.2385,-0.2384,-0.2384,0,0,-0.2303,-0.2316,-0.2328,-0.2347,-0.2366,-0.2376,-0.2384,-0.2402,-0.2406,-0.2431,-0.2419,-0.243,-0.2446,-0.245,-0.2454,-0.2497,-0.2464,-0.2502,-0.2524,-0.2517,-0.252,-0.2523,-0.2496,-0.2495,-0.2501,-0.2501,-0.2501,0,-0.2307,-0.2326,-0.2338,-0.2359,-0.2374,-0.2384,-0.2406,-0.2424,-0.2444,-0.2451,-0.2441,-0.2466,-0.2467,-0.2492,-0.2507,-0.2509,-0.249,-0.2497,-0.2522,-0.2525,-0.2526,-0.2498,-0.2497,-0.2503,-0.2503,-0.2503,-0.2502,0,-0.2329,-0.235,-0.2363,-0.2388,-0.2411,-0.2434,-0.2462,-0.2482,-0.2487,-0.2497,-0.2521,-0.2525,-0.2533,-0.2543,-0.2539,-0.256,-0.2537,-0.2531,-0.2501,-0.2533,-0.2502,-0.25,-0.2506,-0.2505,-0.2505,-0.2504,0,0,-0.2312,-0.2365,-0.2368,-0.2382,-0.2426,-0.2444,-0.2486,-0.2518,-0.2535,-0.2555,-0.257,-0.2597,-0.2589,-0.2593,-0.2589,-0.2588,-0.2587,-0.2567,-0.2566,-0.2532,-0.2553,-0.2471,-0.2461,-0.2582,-0.2582,-0.2582,-0.2522,0,-0.2318,-0.2357,-0.2386,-0.2425,-0.2445,-0.2479,-0.2515,-0.2549,-0.2569,-0.2591,-0.26,-0.2615,-0.2612,-0.2612,-0.2614,-0.2599,-0.2586,-0.2603,-0.2534,-0.2532,-0.2449,-0.2459,-0.2281,-0.2207,-0.252,-0.252,-0.252,0,-0.2313,-0.2342,-0.2379,-0.2433,-0.2445,-0.2474,-0.252,-0.2556,-0.26,-0.2615,-0.2633,-0.2637,-0.2651,-0.2636,-0.2618,-0.2627,-0.2593,-0.2574,-0.2571,-0.248,-0.2448,-0.2229,-0.2192,-0.2517,-0.2517,-0.2517,-0.2518,0,-0.2267,-0.233,-0.2354,-0.2374,-0.2444,-0.2465,-0.25,-0.2553,-0.2577,-0.2622,-0.2633,-0.2654,-0.265,-0.2633,-0.2601,-0.2608,-0.2563,-0.2564,-0.2454,-0.2448,-0.2275,-0.2252,-0.2537,-0.2537,-0.2537,-0.2537,-0.2538,0,-0.2245,-0.2261,-0.2334,-0.2346,-0.2374,-0.2437,-0.2467,-0.251,-0.2563,-0.2583,-0.2632,-0.2637,-0.2649,-0.2628,-0.26,-0.2516,-0.2557,-0.2453,-0.2428,-0.2283,-0.2263,-0.2519,-0.2518,-0.2535,-0.2536,-0.2536,-0.2536,0,-0.2174,-0.2228,-0.2255,-0.2328,-0.2348,-0.2364,-0.2434,-0.2454,-0.2523,-0.2548,-0.256,-0.2613,-0.2588,-0.2578,-0.254,-0.2493,-0.2437,-0.2391,-0.2213,-0.2168,-0.2325,-0.2327,-0.2265,-0.2261,-0.2258,-0.2256,-0.2254,0,-0.2136,-0.2144,-0.2215,-0.2225,-0.2252,-0.2293,-0.2315,-0.2408,-0.2433,-0.252,-0.2517,-0.2528,-0.2493,-0.2416,-0.2344,-0.2258,-0.2343,-0.2049,-0.2035,-0.2316,-0.2298,-0.2304,-0.231,-0.1816,-0.1811,-0.1807,-0.1803,0,-0.2051,-0.2079,-0.21,-0.2124,-0.2148,-0.2178,-0.2223,-0.2238,-0.2342,-0.2364,-0.2379,-0.2363,-0.2313,-0.2147,-0.2056,-0.1991,-0.2055,-0.1955,-0.2281,-0.1922,-0.189,-0.1875,-0.1895,-0.1764,-0.1768,-0.177,-0.1773,-0.1774,-0.197,-0.1961,-0.199,-0.1997,-0.2025,-0.2029,-0.2006,-0.2064,-0.2073,-0.2074,-0.2168,-0.2086,-0.2066,-0.1831,-0.1726,-0.1651,-0.1796,-0.1713,-0.1728,-0.1747,-0.1715,-0.1681,-0.1507,-0.151,-0.1512,-0.1514,-0.1515,0,-0.1851,-0.1854,-0.1857,-0.1862,-0.1832,-0.1896,-0.191,-0.1858,-0.181,-0.1846,-0.1825,-0.1633,-0.1515,-0.1507,-0.1326,-0.1283,-0.1279,-0.1229,-0.1228,-0.1267,-0.1302,-0.1249,-0.0917,-0.0915,-0.0914,-0.0912,0,0,-0.179,-0.1744,-0.1743,-0.1655,-0.1656,-0.1571,-0.1542,-0.1489,-0.1474,-0.1384,-0.1346,-0.1444,-0.1469,-0.1204,-0.1129,-0.0996,-0.1123,-0.0942,-0.1421,-0.1459,-0.1492,-0.1578,-0.1539,0,0,0,0,0]},{"header":{"parameterUnit":"m.s-1","parameterCategory":2,"la1":30.2991,"la2":30.254,"lo1":-89.0895,"lo2":-89.0444,"dy":0.0017,"dx":0.0017,"nx":28,"ny":28,"refTime":"2025-01-14T03:00:00:Z","depth":"2","parameterNumber":3,"parameterNumberName":"V-component_of_CURRENTS"},"data":[0,0,0,0,0,0,0,0,0,0,0,0,0,0,0,0,0,0,0,0,0,0,0,0,0,0,0,0,0,0,0,0,0,0,0,0,0,0,0,0,0,0,0,0,0,0,0,0,0,0,0,0,0,0,0,0,0,0,-0.0354,-0.0353,0,-0.0261,-0.026,-0.0259,-0.0196,-0.0196,-0.0195,-0.0195,-0.0062,-0.0059,-0.0056,0,0,0,0,0,0,0,0,0,0,0,0,0,-0.0402,-0.0402,-0.0354,-0.0353,-0.0352,-0.0261,-0.026,-0.0258,-0.0196,-0.0195,-0.0195,-0.0195,-0.0063,-0.0059,-0.0056,0,0,0,0,0,0,0,0,0,0,0,0,0,-0.0351,-0.0402,-0.0354,-0.0312,-0.0307,-0.0262,-0.026,-0.0258,-0.0196,-0.0195,-0.0195,-0.0195,-0.0065,-0.006,-0.0055,-0.0032,0,0,-0.004,-0.0038,0,0,0,0,0,0,0,0,-0.0354,-0.0349,-0.0319,-0.0315,-0.0309,-0.0242,-0.0228,-0.0181,-0.0196,-0.0236,-0.0195,-0.0195,-0.012,-0.0111,-0.0091,-0.0025,-0.002,-0.0039,-0.0036,-0.0034,-0.0033,0,0,0,0,0,0,0,-0.0357,-0.0352,-0.0315,-0.0318,-0.0312,-0.0271,-0.0264,-0.0218,-0.0179,-0.0232,-0.0228,-0.0221,-0.0117,-0.0096,-0.0088,-0.0018,-0.004,-0.0035,-0.0032,-0.003,0.0077,0.0077,0,0,0,0,0,0,-0.0378,-0.0356,-0.0318,-0.0312,-0.0333,-0.0271,-0.0263,-0.0262,-0.018,-0.0168,-0.0222,-0.0219,-0.0105,-0.0094,-0.0083,-0.0054,-0.0034,-0.003,-0.0027,0.0077,0.0077,0.0077,0,0,0,0,0,0,-0.0379,-0.0375,-0.0322,-0.0333,-0.0324,-0.0272,-0.027,-0.026,-0.0241,-0.0173,-0.016,-0.0214,-0.0104,-0.009,-0.0046,-0.0048,-0.0027,-0.0023,0.0078,0.0077,0.0077,0.0007,0,0,0,0,0,0,-0.0381,-0.0377,-0.0382,-0.0335,-0.0324,-0.0302,-0.0271,-0.0259,-0.0239,-0.0234,-0.0161,-0.0149,-0.0103,-0.0054,-0.0041,-0.0041,-0.0019,0.0078,0.0077,0.0077,0.001,0.0005,0.0,0,0,0,0,0,-0.0383,-0.0392,-0.0383,-0.0378,-0.0334,-0.0303,-0.0293,-0.0252,-0.0239,-0.0233,-0.0185,-0.0151,-0.0046,-0.005,-0.0035,-0.0033,0.0078,0.0078,0.0077,0.0012,0.0005,0.0,0,0,0,0,0,0,-0.041,-0.0385,-0.0374,-0.0374,-0.0346,-0.0293,-0.0284,-0.026,-0.0217,-0.0213,-0.0149,-0.0133,-0.0096,-0.0056,-0.0062,-0.0003,0.002,0.0023,-0.0035,-0.004,-0.0044,-0.0057,-0.0015,0,0,0,0,0,-0.0423,-0.0426,-0.0391,-0.039,-0.038,-0.0335,-0.0318,-0.0293,-0.0251,-0.0232,-0.0183,-0.013,-0.0085,-0.0057,-0.0011,0.0022,0.0064,0.0032,0.0027,0.0023,0.0023,0.0078,0.0078,0.0076,0.0076,0.0076,0,0,-0.0432,-0.042,-0.0421,-0.0397,-0.0371,-0.0362,-0.0324,-0.0304,-0.0292,-0.0224,-0.0192,-0.0145,-0.008,-0.0044,-0.0023,-0.001,0.0045,0.0023,0.0019,0.0021,0.0078,0.0078,0.0078,0.0076,0.0076,0.0076,0,0,-0.0456,-0.0445,-0.0456,-0.0439,-0.0413,-0.0384,-0.0385,-0.0339,-0.0314,-0.0281,-0.023,-0.0186,-0.0117,-0.007,-0.0037,-0.0039,0.0016,-0.0028,-0.0056,-0.0003,-0.0002,-0.0001,0.0048,0.0054,-0.0027,-0.0028,-0.0028,0,-0.047,-0.048,-0.0453,-0.0458,-0.0449,-0.0401,-0.0407,-0.0374,-0.0319,-0.0299,-0.0282,-0.0179,-0.0128,-0.0074,-0.0076,-0.005,-0.0012,-0.0042,-0.001,-0.0008,-0.0005,0.0045,0.0052,-0.0031,-0.0031,-0.003,-0.003,0,-0.05,-0.0508,-0.0513,-0.0507,-0.0492,-0.0489,-0.0447,-0.0426,-0.0394,-0.0355,-0.0301,-0.0229,-0.0167,-0.0147,-0.011,-0.0069,-0.0046,-0.0026,0.0001,-0.001,0.0044,0.0053,-0.0036,-0.0035,-0.0034,-0.0033,0,0,-0.0532,-0.0536,-0.0538,-0.0549,-0.0521,-0.0512,-0.0494,-0.0459,-0.0445,-0.0386,-0.0356,-0.0278,-0.0236,-0.0197,-0.0142,-0.0096,-0.0051,-0.0061,-0.0056,-0.0019,0.0065,0.0096,0.0109,-0.0026,-0.0025,-0.0024,0.0094,0,-0.0564,-0.0598,-0.0582,-0.0603,-0.0616,-0.0572,-0.056,-0.0521,-0.0474,-0.0432,-0.0351,-0.0302,-0.0255,-0.0227,-0.0173,-0.0079,-0.0029,-0.0084,0.0076,0.0081,0.0104,0.012,0.0098,0.0203,0.0103,0.0105,0.0106,0,-0.06,-0.062,-0.0655,-0.0662,-0.0661,-0.0661,-0.0633,-0.0614,-0.054,-0.0502,-0.0434,-0.0365,-0.028,-0.0246,-0.009,-0.0128,-0.0041,0.0031,0.0038,0.0098,0.0129,0.02,0.0224,0.0122,0.0121,0.012,0.0119,0,-0.0646,-0.0668,-0.0702,-0.0705,-0.0701,-0.0703,-0.0692,-0.0637,-0.0621,-0.0543,-0.0516,-0.0404,-0.0344,-0.0222,-0.0071,-0.008,0.0101,0.011,0.0224,0.0227,0.0257,0.0261,0.0218,0.0218,0.0217,0.0217,0.0217,0,-0.0691,-0.0716,-0.0731,-0.0751,-0.0785,-0.0757,-0.0768,-0.0736,-0.0685,-0.0661,-0.0557,-0.0504,-0.0336,-0.0209,-0.0079,0.0106,0.0101,0.0227,0.0263,0.0232,0.0232,0.02,0.0196,0.0222,0.0221,0.022,0.0219,0,-0.0737,-0.0746,-0.0789,-0.0805,-0.0812,-0.0836,-0.0832,-0.0832,-0.0774,-0.0738,-0.0716,-0.0573,-0.0402,-0.0223,-0.0014,0.0098,0.0268,0.0333,0.0284,0.0312,0.0359,0.035,0.047,0.0472,0.0474,0.0475,0.0476,0,-0.0764,-0.0793,-0.0839,-0.0871,-0.0883,-0.0909,-0.0924,-0.0885,-0.0875,-0.0772,-0.0755,-0.0588,-0.045,-0.0129,0.0093,0.0337,0.0331,0.0449,0.043,0.0363,0.0387,0.0375,0.0364,0.0444,0.0445,0.0446,0.0446,0,-0.0813,-0.083,-0.0866,-0.0938,-0.0972,-0.1004,-0.1017,-0.1025,-0.0963,-0.0903,-0.079,-0.0669,-0.036,-0.009,0.0216,0.0354,0.0407,0.0472,0.0434,0.0376,0.0347,0.0367,0.0356,0.0453,0.0452,0.0452,0.0452,0.0451,-0.0841,-0.0884,-0.0936,-0.0998,-0.1043,-0.1082,-0.1098,-0.1082,-0.1048,-0.0933,-0.0821,-0.0601,-0.0355,0.0094,0.0305,0.05,0.0495,0.0546,0.0541,0.0535,0.0504,0.0479,0.0604,0.0604,0.0604,0.0605,0.0605,0,-0.0871,-0.0923,-0.0991,-0.1061,-0.1112,-0.1121,-0.1142,-0.1116,-0.106,-0.0923,-0.0773,-0.047,-0.0167,0.0092,0.0409,0.059,0.0568,0.0616,0.055,0.0543,0.0537,0.0502,0.0604,0.0604,0.0604,0.0605,0,0,-0.0889,-0.0959,-0.0997,-0.1092,-0.1141,-0.1174,-0.1178,-0.1112,-0.1005,-0.0844,-0.0672,-0.0456,-0.0145,0.0075,0.0301,0.0464,0.0455,0.0479,0.0463,0.0352,0.0344,0.0484,0.0422,0,0,0,0,0]}],[{"header":{"parameterUnit":"m.s-1","parameterCategory":2,"la1":30.2991,"la2":30.254,"lo1":-89.0895,"lo2":-89.0444,"dy":0.0017,"dx":0.0017,"nx":28,"ny":28,"refTime":"2025-01-14T03:00:00:Z","depth":"4","parameterNumber":2,"parameterNumberName":"U-component_of_CURRENTS"},"data":[0,0,0,0,0,0,0,0,0,0,0,0,0,0,0,0,0,0,0,0,0,0,0,0,0,0,0,0,0,0,0,0,0,0,0,0,0,0,0,0,0,0,0,0,0,0,0,0,0,0,0,0,0,0,0,0,0,0,-0.1606,-0.1607,0,-0.167,-0.167,-0.1671,-0.1708,-0.1708,-0.1708,-0.1708,-0.1775,-0.1777,-0.1778,0,0,0,0,0,0,0,0,0,0,0,0,0,-0.1519,-0.152,-0.1606,-0.1607,-0.1608,-0.167,-0.167,-0.1671,-0.1708,-0.1708,-0.1708,-0.1709,-0.1775,-0.1777,-0.1778,0,0,0,0,0,0,0,0,0,0,0,0,0,-0.1566,-0.1521,-0.1606,-0.1634,-0.1638,-0.1669,-0.167,-0.1671,-0.1708,-0.1708,-0.1708,-0.1709,-0.1774,-0.1776,-0.1779,-0.1785,0,0,-0.1786,-0.1787,0,0,0,0,0,0,0,0,-0.1563,-0.1569,-0.1629,-0.1632,-0.1636,-0.1682,-0.1664,-0.171,-0.1707,-0.168,-0.1708,-0.1709,-0.1745,-0.175,-0.1759,-0.1788,-0.1791,-0.1786,-0.1787,-0.1788,-0.1789,0,0,0,0,0,0,0,-0.156,-0.1566,-0.163,-0.163,-0.1635,-0.1645,-0.1652,-0.1673,-0.1708,-0.1682,-0.1685,-0.1694,-0.1747,-0.1757,-0.1761,-0.1792,-0.1786,-0.1788,-0.1789,-0.179,-0.1903,-0.1904,0,0,0,0,0,0,-0.1554,-0.1563,-0.1628,-0.1632,-0.1601,-0.1647,-0.1654,-0.1666,-0.1708,-0.1715,-0.1694,-0.1696,-0.1752,-0.1758,-0.1763,-0.1842,-0.1788,-0.179,-0.1792,-0.1901,-0.1903,-0.1905,0,0,0,0,0,0,-0.1552,-0.1559,-0.1625,-0.16,-0.1609,-0.1648,-0.1661,-0.1667,-0.1703,-0.1717,-0.1724,-0.1727,-0.1753,-0.176,-0.1809,-0.1842,-0.1791,-0.1794,-0.1899,-0.1902,-0.1904,-0.1955,0,0,0,0,0,0,-0.1549,-0.1558,-0.1577,-0.1599,-0.161,-0.1663,-0.1661,-0.1668,-0.1707,-0.1711,-0.1747,-0.1752,-0.1754,-0.1806,-0.1812,-0.1844,-0.1795,-0.1897,-0.19,-0.1903,-0.1951,-0.1958,-0.1965,0,0,0,0,0,-0.1546,-0.1568,-0.1577,-0.1586,-0.1631,-0.1665,-0.1672,-0.1699,-0.1709,-0.1732,-0.1758,-0.1753,-0.1829,-0.1809,-0.1815,-0.1849,-0.1896,-0.1899,-0.1903,-0.1948,-0.1957,-0.1965,0,0,0,0,0,0,-0.1547,-0.1575,-0.1585,-0.1617,-0.1648,-0.1672,-0.1699,-0.1715,-0.1754,-0.1765,-0.1774,-0.1782,-0.1837,-0.1838,-0.1816,-0.1891,-0.1861,-0.1866,-0.1893,-0.1902,-0.1909,-0.1901,-0.1797,0,0,0,0,0,-0.1553,-0.1575,-0.1604,-0.1633,-0.165,-0.1679,-0.1701,-0.1721,-0.1752,-0.177,-0.1797,-0.1825,-0.1852,-0.1873,-0.1897,-0.1939,-0.192,-0.1965,-0.1972,-0.1978,-0.1977,-0.1978,-0.1984,-0.1917,-0.1917,-0.1917,0,0,-0.1563,-0.1581,-0.1596,-0.1634,-0.166,-0.1693,-0.1694,-0.1737,-0.1772,-0.1771,-0.1835,-0.1854,-0.187,-0.1918,-0.1942,-0.1926,-0.1988,-0.1983,-0.1987,-0.1983,-0.1982,-0.1989,-0.1994,-0.1919,-0.1919,-0.1918,0,0,-0.1581,-0.161,-0.1631,-0.1659,-0.1703,-0.1722,-0.1741,-0.1784,-0.1814,-0.1869,-0.1878,-0.1916,-0.1965,-0.1979,-0.1991,-0.2051,-0.2025,-0.2065,-0.2096,-0.2098,-0.2103,-0.2107,-0.2087,-0.2089,-0.2068,-0.2069,-0.2069,0,-0.1594,-0.1622,-0.1645,-0.1674,-0.1704,-0.1738,-0.1773,-0.1809,-0.1866,-0.1891,-0.19,-0.1972,-0.1991,-0.2034,-0.2059,-0.2067,-0.2054,-0.2061,-0.2105,-0.2109,-0.2112,-0.209,-0.2092,-0.2071,-0.2071,-0.2071,-0.2071,0,-0.1616,-0.1655,-0.1674,-0.1719,-0.1755,-0.1794,-0.1841,-0.1887,-0.1926,-0.1954,-0.2018,-0.2043,-0.2079,-0.2098,-0.21,-0.2141,-0.212,-0.2112,-0.2079,-0.2122,-0.2096,-0.2097,-0.2076,-0.2075,-0.2074,-0.2073,0,0,-0.16,-0.1674,-0.1684,-0.1714,-0.1783,-0.1811,-0.1878,-0.1935,-0.1975,-0.2034,-0.2077,-0.2134,-0.2144,-0.2158,-0.2167,-0.2176,-0.2194,-0.2161,-0.216,-0.2132,-0.2183,-0.2035,-0.2021,-0.2195,-0.2196,-0.2196,-0.2153,0,-0.1611,-0.1667,-0.1706,-0.1773,-0.1805,-0.1864,-0.1919,-0.1978,-0.2029,-0.2081,-0.2115,-0.2161,-0.2167,-0.2189,-0.2202,-0.2201,-0.2199,-0.2205,-0.2154,-0.2152,-0.2007,-0.2018,-0.2198,-0.2154,-0.2154,-0.2154,-0.2154,0,-0.1607,-0.1648,-0.1711,-0.1793,-0.1815,-0.1865,-0.195,-0.2005,-0.2081,-0.2119,-0.2167,-0.2191,-0.223,-0.2222,-0.2231,-0.2236,-0.2215,-0.2203,-0.2201,-0.2043,-0.2004,-0.2104,-0.2154,-0.2154,-0.2154,-0.2154,-0.2154,0,-0.1557,-0.1647,-0.1697,-0.1728,-0.1828,-0.1875,-0.1933,-0.2017,-0.2059,-0.2141,-0.2169,-0.2219,-0.2239,-0.2238,-0.2224,-0.2234,-0.2209,-0.2213,-0.2053,-0.2042,-0.2167,-0.2163,-0.2202,-0.2202,-0.2202,-0.2202,-0.2202,0,-0.1528,-0.1572,-0.1684,-0.171,-0.1773,-0.1857,-0.1925,-0.1989,-0.2069,-0.2101,-0.2181,-0.2193,-0.2245,-0.2238,-0.2225,-0.2126,-0.2205,-0.2047,-0.2019,-0.219,-0.2189,-0.2167,-0.2163,-0.2201,-0.2201,-0.2201,-0.2201,0,-0.1452,-0.153,-0.1592,-0.1709,-0.1749,-0.1794,-0.1908,-0.1943,-0.2039,-0.2079,-0.2104,-0.2175,-0.2162,-0.2178,-0.2165,-0.2097,-0.204,-0.1984,-0.215,-0.2134,-0.1875,-0.1875,-0.18,-0.1795,-0.179,-0.1786,-0.1783,0,-0.1412,-0.1439,-0.1569,-0.1604,-0.1661,-0.1745,-0.179,-0.191,-0.1938,-0.2042,-0.2035,-0.2069,-0.2093,-0.1943,-0.1992,-0.1929,-0.1908,-0.1863,-0.1883,-0.1852,-0.1833,-0.1841,-0.1847,-0.1775,-0.1774,-0.1772,-0.1771,0,-0.1328,-0.139,-0.144,-0.1512,-0.1574,-0.1629,-0.1705,-0.1711,-0.1828,-0.1935,-0.19,-0.188,-0.1853,-0.1834,-0.1787,-0.1754,-0.189,-0.1813,-0.1823,-0.1841,-0.1821,-0.1808,-0.182,-0.1755,-0.1757,-0.1759,-0.1759,0,-0.1263,-0.1275,-0.1348,-0.1394,-0.1466,-0.1479,-0.1542,-0.1566,-0.161,-0.1729,-0.1711,-0.1753,-0.1826,-0.174,-0.1706,-0.165,-0.1632,-0.158,-0.1602,-0.1621,-0.1583,-0.1531,-0.1338,0,0,0,0,0,-0.1184,-0.1182,-0.1219,-0.1264,-0.1328,-0.1365,-0.1462,-0.1528,-0.1644,-0.1566,-0.1633,-0.1601,-0.1549,-0.1579,-0.148,-0.1629,-0.1641,-0.1509,-0.1595,-0.1662,-0.1682,-0.1654,0,0,0,0,0,0,-0.1133,-0.1162,-0.1172,-0.1137,-0.1139,-0.1192,-0.1244,-0.1329,-0.1298,-0.1421,-0.1396,-0.1492,-0.1463,-0.1567,-0.1441,-0.1448,-0.1466,-0.1548,-0.1543,-0.1652,-0.1669,-0.1684,-0.1662,0,0,0,0,0]},{"header":{"parameterUnit":"m.s-1","parameterCategory":2,"la1":30.2991,"la2":30.254,"lo1":-89.0895,"lo2":-89.0444,"dy":0.0017,"dx":0.0017,"nx":28,"ny":28,"refTime":"2025-01-14T03:00:00:Z","depth":"4","parameterNumber":3,"parameterNumberName":"V-component_of_CURRENTS"},"data":[0,0,0,0,0,0,0,0,0,0,0,0,0,0,0,0,0,0,0,0,0,0,0,0,0,0,0,0,0,0,0,0,0,0,0,0,0,0,0,0,0,0,0,0,0,0,0,0,0,0,0,0,0,0,0,0,0,0,-0.0211,-0.0211,0,-0.0156,-0.0155,-0.0154,-0.0112,-0.0112,-0.0112,-0.0112,-0.0011,-0.0009,-0.0006,0,0,0,0,0,0,0,0,0,0,0,0,0,-0.0224,-0.0224,-0.0211,-0.0211,-0.021,-0.0156,-0.0155,-0.0154,-0.0113,-0.0112,-0.0112,-0.0112,-0.0012,-0.0009,-0.0006,0,0,0,0,0,0,0,0,0,0,0,0,0,-0.0197,-0.0224,-0.0211,-0.0184,-0.0182,-0.0156,-0.0155,-0.0153,-0.0113,-0.0112,-0.0112,-0.0112,-0.0013,-0.0009,-0.0006,0.0012,0,0,0.0006,0.0008,0,0,0,0,0,0,0,0,-0.0198,-0.0196,-0.0189,-0.0186,-0.0183,-0.0142,-0.0122,-0.0097,-0.0113,-0.0137,-0.0112,-0.0112,-0.0052,-0.0045,-0.0033,0.0017,0.0021,0.0006,0.0009,0.001,0.0011,0,0,0,0,0,0,0,-0.02,-0.0198,-0.0187,-0.0188,-0.0185,-0.0156,-0.0152,-0.0117,-0.0094,-0.0135,-0.0132,-0.0129,-0.005,-0.0037,-0.003,0.0023,0.0006,0.001,0.0012,0.0013,0.0095,0.0095,0,0,0,0,0,0,-0.0215,-0.02,-0.0189,-0.0186,-0.0192,-0.0156,-0.0151,-0.0154,-0.0096,-0.0087,-0.0129,-0.0127,-0.0044,-0.0035,-0.0027,-0.0007,0.001,0.0014,0.0016,0.0095,0.0095,0.0095,0,0,0,0,0,0,-0.0215,-0.0214,-0.0191,-0.0193,-0.0188,-0.0157,-0.016,-0.0153,-0.0143,-0.0093,-0.0083,-0.0126,-0.0043,-0.0032,0.0,-0.0002,0.0015,0.0019,0.0095,0.0095,0.0095,0.0036,0,0,0,0,0,0,-0.0216,-0.0215,-0.0222,-0.0194,-0.0188,-0.0182,-0.016,-0.0152,-0.0143,-0.0139,-0.0087,-0.0077,-0.0042,-0.0006,0.0004,0.0003,0.0022,0.0095,0.0095,0.0095,0.0038,0.0034,0.003,0,0,0,0,0,-0.0217,-0.0227,-0.0223,-0.0222,-0.02,-0.0183,-0.0177,-0.0152,-0.0143,-0.0141,-0.0106,-0.0079,-0.0,-0.0003,0.0009,0.0009,0.0095,0.0095,0.0095,0.004,0.0035,0.003,0,0,0,0,0,0,-0.0233,-0.0224,-0.0218,-0.0225,-0.021,-0.0177,-0.0174,-0.0159,-0.013,-0.0127,-0.0078,-0.0066,-0.0039,-0.0008,-0.0012,0.0032,0.0052,0.0054,0.0006,0.0002,-0.0002,-0.0012,0.0025,0,0,0,0,0,-0.0243,-0.0251,-0.0232,-0.0238,-0.0234,-0.0206,-0.0197,-0.0182,-0.0154,-0.0141,-0.0105,-0.0066,-0.0031,-0.001,0.0025,0.0049,0.0084,0.0057,0.0053,0.0049,0.005,0.0097,0.0098,0.0094,0.0094,0.0094,0,0,-0.0251,-0.0247,-0.0251,-0.0243,-0.0229,-0.0227,-0.02,-0.0192,-0.0187,-0.0134,-0.0115,-0.0079,-0.0028,-0.0001,0.0014,0.0025,0.0068,0.0049,0.0046,0.0048,0.0097,0.0097,0.0098,0.0094,0.0094,0.0094,0,0,-0.0271,-0.0269,-0.0282,-0.0275,-0.0263,-0.0246,-0.0248,-0.0221,-0.0206,-0.0185,-0.0146,-0.0112,-0.0061,-0.0024,0.0001,-0.0002,0.0044,0.0007,-0.0016,0.0029,0.003,0.0031,0.007,0.0075,0.0007,0.0007,0.0007,0,-0.0282,-0.0297,-0.0282,-0.0291,-0.029,-0.0259,-0.0269,-0.0249,-0.0214,-0.0201,-0.0188,-0.011,-0.0071,-0.0029,-0.0032,-0.0011,0.002,-0.0005,0.0024,0.0026,0.0028,0.0068,0.0074,0.0004,0.0005,0.0005,0.0005,0,-0.0309,-0.0322,-0.0329,-0.0334,-0.0328,-0.0331,-0.0307,-0.0296,-0.0275,-0.0249,-0.021,-0.0154,-0.0107,-0.009,-0.0061,-0.0027,-0.0008,0.001,0.0033,0.0024,0.0067,0.0075,0.0,0.0001,0.0002,0.0003,0,0,-0.0332,-0.0347,-0.035,-0.0364,-0.0353,-0.0353,-0.0345,-0.0327,-0.0321,-0.0279,-0.0259,-0.0198,-0.0165,-0.0134,-0.0089,-0.0049,-0.0011,-0.0019,-0.0015,0.0015,0.0087,0.0075,0.0083,0.0012,0.0014,0.0014,0.0109,0,-0.0358,-0.0394,-0.0388,-0.0415,-0.0429,-0.0405,-0.0402,-0.038,-0.0349,-0.0321,-0.0256,-0.0221,-0.0182,-0.016,-0.0113,-0.0035,0.0007,-0.0038,0.0096,0.01,0.0086,0.0091,0.0018,0.0115,0.0117,0.0118,0.0119,0,-0.0386,-0.0408,-0.0445,-0.0463,-0.0467,-0.0476,-0.0467,-0.0459,-0.0408,-0.0383,-0.033,-0.0276,-0.0206,-0.0176,-0.0045,-0.0076,-0.0002,0.0059,0.0065,0.008,0.0102,0.0129,0.0133,0.0132,0.0131,0.013,0.0129,0,-0.0414,-0.0446,-0.048,-0.0487,-0.05,-0.0511,-0.0512,-0.048,-0.0474,-0.0419,-0.0402,-0.0309,-0.0262,-0.0157,-0.0033,-0.0036,0.0112,0.0125,0.0187,0.0187,0.0196,0.0194,0.0217,0.0217,0.0216,0.0216,0.0216,0,-0.0442,-0.047,-0.0502,-0.0522,-0.0562,-0.0553,-0.0575,-0.0558,-0.0529,-0.0517,-0.0437,-0.0398,-0.0256,-0.0152,-0.0041,0.0095,0.011,0.0185,0.0212,0.0168,0.0162,0.0201,0.0198,0.022,0.0219,0.0218,0.0218,0,-0.0463,-0.0484,-0.053,-0.0564,-0.0579,-0.0608,-0.063,-0.0637,-0.0605,-0.0584,-0.0568,-0.0459,-0.0324,-0.0177,-0.0,0.0078,0.0213,0.0258,0.0196,0.0218,0.0259,0.0252,0.0333,0.0333,0.0334,0.0334,0.0334,0,-0.0474,-0.0502,-0.0568,-0.0604,-0.0626,-0.0666,-0.0691,-0.0679,-0.0677,-0.0614,-0.0599,-0.0477,-0.0388,-0.0141,0.0003,0.0212,0.024,0.03,0.0282,0.0254,0.0272,0.0264,0.0257,0.0335,0.0335,0.0335,0.0335,0,-0.0494,-0.0524,-0.0563,-0.0642,-0.0689,-0.0731,-0.0759,-0.0765,-0.0735,-0.0709,-0.0605,-0.0475,-0.0324,-0.0139,0.002,0.017,0.0254,0.0304,0.0304,0.0288,0.0257,0.0273,0.0265,0.0336,0.0336,0.0336,0.0336,0,-0.0505,-0.0542,-0.0602,-0.0665,-0.073,-0.077,-0.0788,-0.0769,-0.0757,-0.0679,-0.0645,-0.0474,-0.0373,-0.016,-0.0011,0.013,0.0163,0.0198,0.0205,0.0205,0.0134,0.0075,0.0123,0,0,0,0,0,-0.0507,-0.0551,-0.0619,-0.0688,-0.0753,-0.0783,-0.0816,-0.0819,-0.0794,-0.0722,-0.0678,-0.0529,-0.0298,-0.0196,-0.0054,-0.0021,0.017,0.0145,0.021,0.0342,0.0341,0.0278,0,0,0,0,0,0,-0.0511,-0.0575,-0.0614,-0.0688,-0.0735,-0.0795,-0.0817,-0.0805,-0.0753,-0.0709,-0.0579,-0.0503,-0.0275,-0.0368,-0.005,-0.0009,0.0047,0.0259,0.0261,0.0343,0.0342,0.0341,0.0275,0,0,0,0,0]}]]